Wind_Speed
33 32 32 30 29 28 28 27 26 26 25 24 23 22 22 22 21 20 20 19 19 19 18 18 18 17 17 17 16 17 17 17 17 16 16 17 17 17 17 17 17 17 17
35 33 33 33 31 30 30 29 29 28 28 26 25 24 24 23 23 22 21 21 21 21 20 20 20 20 19 18 18 18 18 19 19 18 18 18 18 18 18 18 18 18 18
36 35 34 34 33 33 32 32 31 30 30 29 28 27 26 25 25 24 24 23 23 23 23 22 22 21 21 20 20 20 20 20 20 20 20 20 19 19 19 19 19 19 19
37 36 36 35 35 34 34 33 33 33 32 31 30 29 28 27 26 26 26 26 26 25 25 24 24 23 23 22 22 22 22 22 22 21 21 21 21 20 20 20 20 20 20
38 37 37 37 37 36 35 34 34 34 33 33 32 31 30 30 29 28 28 28 28 27 27 26 25 25 24 24 23 24 23 22 22 22 22 22 22 22 22 21 21 21 21
39 39 38 38 38 38 38 37 36 35 35 35 34 34 33 31 31 30 30 30 29 28 28 28 27 27 27 26 25 25 24 24 23 23 23 23 23 23 23 23 23 23 23
41 40 40 39 39 39 39 38 38 36 36 36 35 35 35 33 33 32 32 31 31 30 29 29 29 29 28 28 27 26 25 25 24 24 24 24 24 24 24 24 24 25 25
43 42 42 41 40 41 41 40 40 38 37 37 37 37 37 36 35 34 33 33 32 32 31 31 31 30 30 29 28 28 27 26 26 26 26 25 25 25 26 26 26 26 27
43 44 43 43 42 42 42 42 41 40 39 38 38 38 38 38 38 37 36 35 33 32 32 31 31 31 31 31 30 29 29 28 28 28 27 27 27 27 27 27 27 28 28
45 44 45 44 44 43 43 42 42 41 41 40 40 40 40 39 39 39 38 37 36 35 34 33 32 32 31 31 31 30 30 30 29 29 29 28 28 28 29 29 29 30 30
46 45 46 46 46 45 45 44 43 43 42 41 40 40 40 41 41 40 39 38 37 36 35 34 33 32 32 32 32 32 31 31 31 31 30 30 30 30 30 31 32 32 32
46 46 46 47 47 46 46 46 45 44 44 43 42 42 41 41 42 42 41 39 38 37 37 35 34 33 33 32 33 33 33 32 32 32 32 32 32 32 32 33 34 34 34
48 46 46 47 47 47 46 46 46 46 45 44 44 43 43 42 42 42 43 41 39 38 38 37 35 35 34 34 34 33 34 33 33 34 34 35 35 35 35 35 36 36 36
48 48 47 47 48 47 47 47 48 47 46 46 45 45 45 45 44 43 42 42 40 39 38 38 38 37 36 36 35 35 35 36 35 36 36 36 36 37 37 37 37 37 38
49 48 48 48 49 49 49 49 48 48 48 47 47 46 46 46 45 45 43 42 42 41 39 40 40 39 38 38 38 37 38 38 37 37 38 37 38 38 38 39 38 39 38
50 49 49 50 50 50 50 50 50 50 49 49 49 49 48 48 46 46 44 44 43 43 42 40 41 41 40 39 39 38 38 39 39 39 39 39 39 39 39 39 40 40 40
51 51 51 50 51 51 51 52 51 51 50 50 51 51 50 49 48 47 47 46 45 44 44 43 42 41 42 41 40 40 39 39 39 40 40 40 40 41 41 41 41 41 41
49 49 50 51 51 51 52 52 52 51 51 51 50 49 49 49 49 48 48 48 47 46 45 44 44 43 43 42 42 41 41 41 40 40 41 40 40 41 41 41 42 42 41
48 48 49 49 49 49 50 50 49 49 49 50 49 48 49 49 49 49 49 49 49 47 46 46 45 45 45 44 43 43 43 42 42 42 42 41 41 41 42 41 41 41 42
46 48 49 49 49 48 48 49 49 49 48 49 50 50 50 50 50 50 50 50 50 49 48 47 46 46 46 46 45 45 44 44 44 43 43 43 43 43 43 42 42 42 42
46 47 47 48 48 49 49 50 50 50 49 49 49 50 51 50 50 51 51 50 50 50 49 48 47 47 47 48 48 47 46 46 45 44 44 44 45 45 45 44 43 43 43
46 47 47 48 49 50 50 50 50 50 49 50 49 49 49 49 51 51 51 51 51 51 50 49 48 47 47 48 49 49 49 48 46 45 45 45 45 45 46 45 45 45 44
47 48 49 49 49 49 50 50 50 50 51 50 50 48 48 49 50 50 51 52 52 51 51 50 49 48 48 48 49 49 49 49 48 48 47 46 46 45 46 46 46 46 46
48 48 48 48 49 49 49 50 50 49 49 48 48 48 49 49 49 49 50 51 52 51 51 51 50 50 49 49 49 50 50 50 50 49 49 48 47 47 47 47 47 46 46
47 48 47 47 47 48 49 48 49 49 48 48 48 48 48 49 50 50 50 51 51 51 52 52 52 52 52 52 52 52 52 52 51 50 50 49 48 48 48 48 48 48 48
46 46 47 46 46 46 46 46 47 48 48 49 48 47 47 49 49 50 49 50 50 51 52 52 52 52 53 53 53 53 53 53 53 52 51 51 51 50 50 49 49 49 49
Wind_Direction
239 239 238 239 240 240 242 243 244 246 246 248 249 251 253 256 257 257 257 259 263 265 268 270 272 274 277 278 279 281 280 281 282 285 287 289 291 292 294 296 298 300 303
239 239 240 239 240 240 242 244 245 246 247 248 250 252 253 256 256 256 257 259 262 264 267 269 271 272 275 275 278 279 279 280 280 282 284 287 289 290 292 293 294 296 298
239 239 239 240 241 241 242 244 245 246 247 248 250 252 253 255 255 256 256 258 261 263 266 268 270 271 271 273 276 277 278 279 280 280 282 284 286 288 289 290 291 293 295
240 240 240 240 241 242 242 244 245 246 247 249 250 251 252 253 254 255 256 258 261 264 265 266 268 270 271 272 273 275 277 278 278 278 280 282 284 285 286 288 289 291 293
240 240 240 241 242 242 243 244 245 247 247 248 249 250 251 253 254 255 257 259 261 263 264 265 266 268 270 271 272 274 275 277 277 278 279 281 282 283 284 285 287 289 290
241 241 240 241 243 244 245 246 246 246 248 249 249 250 251 252 253 255 256 259 261 262 264 265 266 267 268 269 270 273 275 277 276 278 279 280 281 282 283 284 286 287 288
241 243 243 243 245 245 246 247 247 247 249 250 250 251 251 252 253 254 256 258 260 262 264 265 265 266 268 269 270 271 274 275 275 277 279 279 280 281 282 283 285 285 287
243 243 244 246 247 247 246 247 248 248 249 250 251 252 253 253 253 254 255 258 259 261 263 264 265 265 266 268 269 270 271 273 274 276 278 279 279 280 281 283 284 285 286
244 245 245 245 247 248 248 247 248 249 249 250 251 253 253 253 253 254 255 257 258 260 262 263 264 264 265 266 268 270 270 271 273 275 276 278 279 279 280 282 283 285 286
245 246 246 246 247 247 247 246 247 248 249 250 251 252 253 253 253 253 255 256 258 259 260 262 263 264 265 265 267 268 270 270 271 273 275 277 278 279 280 281 283 284 285
245 245 246 245 246 246 246 246 247 247 247 248 249 250 251 252 253 254 255 255 256 257 258 260 262 263 264 264 265 267 269 270 270 271 273 275 277 279 280 281 283 284 285
245 246 246 245 246 246 247 247 247 247 248 248 248 249 251 251 253 254 254 255 255 256 256 259 261 263 263 263 265 267 269 270 270 271 272 274 276 278 279 281 282 284 284
246 247 246 245 246 247 247 247 247 248 248 248 248 249 250 251 252 254 254 255 256 257 257 258 261 263 263 263 265 267 268 268 270 271 273 274 276 277 279 281 282 282 283
246 247 247 247 247 247 246 247 249 249 250 249 249 249 250 252 253 253 254 255 256 257 258 259 259 261 263 264 265 267 268 268 270 271 272 274 276 277 278 280 281 281 281
247 248 248 248 248 248 248 249 249 249 250 251 250 250 251 252 253 254 255 256 256 256 257 258 258 260 262 264 265 266 268 269 270 271 272 274 276 277 278 279 280 280 281
248 247 248 248 249 249 250 250 250 250 250 251 250 250 250 251 253 253 254 255 256 256 257 258 258 259 260 262 264 265 268 269 270 271 272 273 275 277 278 279 280 280 280
249 249 249 250 250 250 250 249 249 250 250 250 251 251 251 251 252 252 252 254 255 256 257 257 259 260 260 261 262 264 267 269 270 271 272 273 275 276 277 278 278 279 280
250 250 250 251 251 251 250 249 249 249 249 250 251 250 250 251 252 252 253 254 256 256 256 258 259 260 261 261 262 263 265 268 270 272 272 274 276 277 278 278 278 278 279
249 249 249 250 251 250 249 249 249 249 250 250 250 249 249 250 251 252 254 255 256 256 257 258 258 259 260 261 261 263 265 267 270 271 272 274 275 276 277 277 277 277 278
250 250 250 250 249 249 249 251 250 250 252 252 251 250 250 252 252 253 253 254 255 255 257 257 258 259 260 261 262 264 265 267 269 271 272 273 274 275 276 277 277 277 278
250 250 249 249 249 249 250 251 251 251 252 252 252 252 252 252 252 253 252 253 253 254 255 256 257 258 260 261 262 264 265 267 269 270 272 273 275 275 276 276 277 277 277
251 250 250 250 249 249 249 250 251 251 252 251 252 253 252 251 252 253 252 252 252 252 253 255 256 257 259 261 263 264 265 266 268 269 271 273 275 276 277 277 277 277 278
253 251 250 250 250 249 249 250 251 251 252 253 253 252 252 252 253 253 253 252 252 252 254 254 256 257 259 260 262 264 265 265 266 268 269 271 274 275 276 276 276 277 277
252 251 251 250 249 249 250 250 249 250 251 252 252 252 252 253 253 254 253 253 253 254 254 255 257 258 259 261 263 264 264 265 266 267 269 270 272 273 274 275 277 277 278
252 251 249 249 250 250 250 250 250 250 251 252 252 252 252 253 254 254 254 254 254 254 255 255 257 258 260 261 263 264 264 264 265 267 267 269 271 272 274 274 275 276 277
253 253 252 251 250 250 252 252 252 251 251 252 252 252 252 253 254 255 254 254 255 256 257 257 257 258 260 261 262 263 263 263 265 266 267 268 269 271 272 274 274 275 277
Height
5809 5812 5814 5817 5819 5821 5823 5825 5826 5828 5829 5830 5832 5833 5833 5834 5835 5836 5836 5836 5837 5837 5837 5837 5837 5836 5836 5835 5835 5834 5833 5833 5832 5831 5830 5829 5828 5827 5826 5824 5823 5821 5820
5802 5805 5807 5810 5813 5815 5817 5818 5820 5822 5823 5825 5826 5827 5828 5829 5830 5831 5831 5832 5832 5832 5833 5832 5832 5832 5832 5831 5831 5830 5830 5829 5828 5827 5826 5825 5824 5823 5822 5821 5819 5818 5816
5794 5797 5800 5803 5805 5808 5810 5812 5814 5815 5817 5819 5820 5822 5823 5824 5825 5826 5826 5827 5827 5828 5828 5828 5828 5828 5827 5827 5826 5826 5825 5825 5824 5823 5822 5821 5820 5819 5818 5817 5815 5814 5812
5786 5789 5792 5795 5798 5800 5802 5805 5806 5808 5810 5812 5814 5815 5816 5818 5819 5820 5821 5821 5822 5822 5822 5823 5823 5822 5822 5822 5822 5821 5820 5820 5819 5818 5818 5817 5816 5814 5813 5812 5811 5810 5808
5778 5781 5783 5786 5789 5792 5794 5797 5799 5801 5803 5805 5807 5808 5810 5811 5812 5813 5814 5815 5815 5816 5816 5817 5817 5817 5817 5817 5816 5816 5815 5815 5814 5813 5812 5812 5811 5809 5808 5807 5806 5805 5803
5769 5772 5774 5777 5780 5783 5786 5788 5791 5793 5795 5797 5799 5801 5802 5803 5805 5806 5807 5808 5809 5809 5810 5810 5811 5811 5811 5811 5810 5810 5810 5809 5808 5808 5807 5806 5805 5804 5803 5802 5801 5799 5798
5760 5763 5766 5768 5771 5774 5777 5780 5782 5784 5787 5788 5791 5792 5794 5795 5797 5799 5800 5801 5802 5802 5803 5804 5804 5804 5804 5804 5804 5804 5804 5803 5803 5802 5801 5800 5799 5798 5797 5796 5795 5794 5792
5750 5753 5757 5759 5762 5764 5767 5770 5773 5775 5778 5780 5782 5784 5786 5788 5789 5791 5792 5793 5794 5795 5796 5797 5797 5797 5798 5798 5798 5798 5797 5797 5797 5796 5795 5794 5794 5792 5791 5790 5789 5788 5786
5740 5743 5746 5749 5752 5755 5757 5760 5763 5766 5768 5770 5772 5774 5776 5778 5780 5782 5783 5785 5786 5787 5788 5789 5789 5790 5790 5791 5791 5791 5791 5790 5790 5789 5789 5788 5787 5786 5785 5784 5782 5781 5779
5730 5733 5736 5739 5742 5744 5747 5750 5753 5756 5758 5761 5762 5764 5766 5768 5770 5773 5775 5776 5777 5779 5780 5781 5782 5782 5782 5783 5783 5783 5783 5783 5783 5782 5782 5781 5780 5779 5778 5777 5776 5774 5772
5719 5723 5725 5728 5731 5734 5737 5740 5742 5745 5748 5750 5752 5754 5756 5758 5760 5762 5765 5767 5768 5770 5771 5772 5773 5774 5774 5775 5775 5775 5775 5775 5775 5775 5774 5774 5773 5772 5771 5769 5768 5766 5765
5709 5711 5714 5717 5720 5723 5726 5729 5732 5734 5737 5740 5742 5744 5746 5748 5750 5752 5755 5756 5758 5760 5761 5763 5764 5765 5766 5766 5767 5767 5767 5767 5767 5767 5766 5766 5765 5764 5763 5761 5760 5758 5756
5698 5701 5703 5706 5709 5712 5715 5718 5721 5724 5726 5729 5731 5733 5735 5737 5740 5742 5744 5746 5748 5750 5752 5754 5755 5756 5757 5758 5758 5758 5758 5758 5758 5758 5758 5757 5756 5755 5754 5752 5750 5749 5747
5686 5689 5692 5695 5698 5701 5704 5707 5710 5713 5715 5718 5720 5723 5725 5727 5729 5731 5734 5736 5738 5740 5742 5744 5745 5746 5747 5748 5749 5749 5749 5749 5749 5749 5748 5748 5747 5746 5745 5743 5741 5739 5738
5674 5678 5681 5684 5687 5689 5692 5696 5699 5701 5704 5707 5709 5711 5714 5716 5718 5721 5723 5725 5727 5729 5732 5733 5735 5736 5737 5739 5739 5739 5739 5739 5739 5739 5739 5738 5737 5736 5735 5733 5731 5730 5728
5663 5666 5669 5672 5675 5678 5680 5684 5687 5689 5692 5695 5697 5700 5702 5705 5707 5710 5712 5714 5716 5718 5721 5723 5724 5726 5727 5728 5729 5729 5729 5729 5729 5729 5728 5728 5727 5726 5724 5723 5721 5719 5717
5651 5653 5656 5659 5662 5665 5668 5671 5674 5677 5680 5682 5685 5687 5690 5693 5695 5698 5700 5702 5704 5707 5709 5712 5713 5714 5716 5717 5718 5719 5719 5719 5719 5718 5718 5717 5716 5715 5713 5712 5710 5708 5706
5638 5641 5643 5646 5649 5652 5655 5658 5661 5664 5667 5670 5672 5675 5678 5680 5683 5686 5688 5691 5693 5695 5698 5700 5702 5703 5704 5705 5707 5708 5708 5708 5708 5708 5707 5706 5705 5703 5701 5700 5698 5696 5695
5625 5628 5631 5634 5636 5639 5642 5645 5648 5651 5654 5657 5659 5662 5665 5668 5670 5673 5676 5678 5681 5683 5685 5688 5690 5691 5692 5694 5695 5696 5696 5697 5697 5696 5696 5695 5693 5692 5690 5688 5687 5685 5683
5613 5615 5618 5621 5624 5626 5629 5632 5635 5638 5641 5644 5647 5649 5652 5655 5657 5660 5663 5665 5668 5671 5673 5675 5677 5679 5680 5681 5683 5684 5685 5685 5685 5684 5684 5683 5682 5680 5678 5677 5675 5674 5672
5600 5602 5605 5608 5611 5614 5617 5620 5622 5625 5628 5631 5634 5636 5639 5642 5644 5647 5650 5652 5655 5658 5660 5662 5664 5666 5668 5669 5670 5671 5672 5672 5672 5671 5671 5671 5670 5668 5666 5665 5663 5662 5660
5587 5589 5592 5595 5598 5601 5604 5606 5609 5612 5615 5617 5621 5623 5626 5629 5631 5634 5636 5639 5642 5644 5647 5649 5651 5654 5655 5656 5657 5658 5658 5659 5660 5660 5659 5658 5657 5655 5654 5652 5651 5649 5648
5573 5576 5578 5581 5584 5587 5590 5593 5595 5598 5601 5604 5607 5610 5613 5615 5618 5620 5623 5625 5628 5630 5634 5636 5638 5640 5642 5644 5644 5645 5645 5645 5646 5646 5646 5645 5644 5643 5642 5640 5638 5637 5636
5560 5563 5565 5568 5571 5574 5577 5579 5582 5585 5588 5591 5594 5597 5600 5602 5605 5607 5609 5612 5614 5617 5620 5623 5626 5627 5628 5629 5630 5631 5631 5632 5632 5632 5632 5633 5631 5630 5629 5628 5626 5624 5623
5547 5549 5552 5555 5557 5560 5563 5565 5568 5571 5575 5578 5581 5584 5586 5589 5592 5594 5597 5599 5602 5603 5605 5608 5610 5612 5613 5615 5616 5616 5617 5618 5619 5619 5618 5619 5619 5618 5616 5615 5613 5611 5610
5535 5537 5539 5542 5544 5547 5550 5552 5554 5558 5562 5565 5568 5571 5573 5576 5578 5580 5582 5585 5587 5589 5591 5593 5595 5597 5598 5600 5601 5602 5603 5604 5604 5605 5605 5605 5604 5604 5604 5602 5600 5598 5596